SCP
0 0 0 0 0 0 0 0 0 0 0 0 0 0 0 0 0 0 0 0 0 0 0 0 0 0 0 -0 -0 -0 -0 -0 0 0 0 0 0 0 0 0 0 0 0 0 0 0 0 0 0
0 0 0 0 0 0 0 0 0 0 0 0 0 0 0 0 0 0 0 0 0 0 0 0 0 0 0 0 0 0 0 0 0 0 0 0 0 0 0 0 0 0 0 0 0 0 0 0 0
0 0 0 0 0 0 0 0 0 0 0 0 0 0 0 0 0 0 0 0 0 0 0 0 0 0 0 0 0 0 0 0 0 0 0 0 0 0 0 0 0 0 0 0 0 0 0 0 0
0 0 0 0 0 0 0 0 0 0 0 0 0 0 0 0 0 0 0 0 0 0 0 0 0 0 0 0 0 0 0 0 0 0 0 0 0 0 0 0 0 0 0 0 0 0 0 0 0
0 0 0 0 0 0 0 0 0 0 0 0 0 0 0 0 0 0 0 0 0 0 0 0 0 0 0 0 0 0 0 0 0 0 0 0 0 0 0 0 0 0 0 0 0 0 0 0 0
0 0 0 0 0 0 0 0 0 0 0 0 0 0 0 0 0 0 0 0 0 0 0 0 0 0 0 0 0 0 0 0 0 0 0 0 0 0 0 0 0 0 0 0 0 0 0 0 0
0 0 0 0 0 0 0 0 0 0 0 0 0 0 0 0 0 0 0 0 0 0 0 0 0 0 0 0 0 0 0 0 0 0 0 0 0 0 0 0 0 0 0 0 0 0 0 0 0
0 0 0 0 0 0 0 0 0 0 0 0 0 0 0 0 0 0 0 0 0 0 0 0 0 0 0 0 0 0 0 0 0 0 0 0 0 0 0 0 0 0 0 0 0 0 0 0 0
0 0 0 0 0 0 0 0 0 0 0 0 0 0 0 0 0 0 0 0 0 0 0 0 0 0 0 0 0 0 0 0 0 0 0 0 0 0 0 0 0 0 0 0 0 0 0 0 0
0 0 0 0 0 0 0 0 0 0 0 0 0 0 0 0 0 0 0 0 0 0 0 0 0 0 0 0 0 0 0 0 0 0 0 0 0 0 0 0 0 0 0 0 0 0 0 0 0
0 0 0 0 0 0 0 0 0 0 0 0 0 0 0 0 0 0 0 0 0 0 0 0 0 0 0 0 0 0 0 0 0 0 0 0 0 0 0 0 0 0 0 0 0 0 0 0 0
0 0 0 0 0 0 0 0 0 0 0 0 0 0 0 0 0 0 0 0 0 0 0 0 0 0 0 0 0 0 0 0 0 0 0 0 0 0 0 0 0 0 0 0 0 0 0 0 0
0 0 0 0 0 0 0 0 0 0 0 0 0 0 0 0 0 0 0 0 0 0 0 0 0 0 0 0 0 0 0 -0 -0 -0 0 0 0 0 0 0 0 0 0 0 0 0 0 0 0
0 0 0 0 0 0 0 0 0 0 0 0 0 0 0 0 0 0 0 0 0 0 0 0 0 0 0 0 0 0 -0 -0 -0 -0 -0 0 0 0 0 0 0 0 0 0 0 0 0 0 0
0 0 0 0 0 0 0 0 0 0 0 0 0 0 0 0 0 0 0 0 0 0 0 0 0 0 0 0 0 0 0 0 -0 0 0 0 0 0 0 0 0 0 0 0 0 0 0 0 0
0 0 0 0 0 0 0 0 0 0 0 0 0 0 0 0 0 0 0 0 0 0 0 0 0 0 0 0 0 0 0 0 0 0 0 0 0 0 0 0 0 0 0 0 0 0 0 0 0
0 0 0 0 0 0 0 0 0 0 0 0 0 0 0 0 0 0 0 0 0 0 0 0 0 0 0 0 0 0 0 0 0 0 0 0 0 0 0 0 0 0 0 0 0 0 0 0 0
0 0 0 0 0 0 0 0 0 0 0 0 0 0 0 0 0 0 0 0 0 0 0 0 0 0 0 0 0 0 0 0 0 0 0 0 0 0 0 0 0 0 0 0 0 0 0 0 0
0 0 0 0 0 0 0 0 0 0 0 0 0 0 0 0 0 0 0 0 0 0 0 0 0 0 0 0 0 0 0 0 0 0 0 0 0 0 0 0 0 0 0 0 0 0 0 0 0
0 0 0 0 0 0 0 0 0 0 0 0 0 0 0 0 0 0 0 0 0 0 0 0 0 0 0 0 0 0 0 0 0 0 0 0 0 0 0 0 0 0 0 0 0 0 0 0 0
0 0 0 0 0 0 0 0 0 0 0 0 0 0 0 0 0 0 0 0 0 0 0 0 0 0 0 0 0 0 0 0 0 0 0 0 0 0 0 0 0 0 0 0 0 0 0 0 0
0 0 0 0 0 0 0 0 0 0 0 0 0 0 0 0 0 0 0 0 0 0 0 0 0 0 0 0 0 0 0 0 0 0 0 0 0 0 0 0 0 0 0 0 0 0 0 0 0
0 0 0 0 0 0 0 0 0 0 0 0 0 0 0 0 0 0 0 0 0 0 0 0 0 0 0 0 0 0 0 0 0 0 0 0 0 0 0 0 0 0 0 0 0 0 0 0 0
0 0 0 0 0 0 0 0 0 0 0 0 0 0 0 0 0 0 0 0 0 0 0 0 0 0 0 0 0 0 0 0 0 0 0 0 0 0 0 0 0 0 0 0 0 0 0 0 0
0 0 0 0 0 0 0 0 0 0 0 0 0 0 0 0 0 0 -0 0 0 0 0 0 0 0 0 0 0 0 0 0 0 0 0 0 0 0 0 0 0 0 0 0 0 0 0 0 0
0 0 0 0 0 0 0 0 0 0 0 0 0 0 0 0 0 0 0 0 0 0 0 0 0 0 0 0 0 0 0 0 0 0 0 0 0 0 0 0 0 0 0 0 0 0 0 0 0
0 0 0 0 0 0 0 0 0 0 0 0 0 0 0 0 0 0 0 0 0 0 0 0 0 0 0 0 0 0 0 0 0 0 0 0 0 0 0 0 0 0 0 0 0 0 0 0 0
0 0 0 0 0 0 0 0 0 0 0 0 0 0 0 0 0 0 0 0 0 0 0 0 0 0 0 0 0 0 0 0 0 0 0 0 0 0 0 0 0 0 0 0 0 0 0 0 0
0 0 0 0 0 0 0 0 0 0 0 0 -0 0 0 0 0 0 0 0 0 0 0 0 0 0 0 0 0 0 0 0 0 0 0 0 0 0 0 0 0 0 0 0 0 0 0 0 0
0 0 0 0 0 0 0 0 0 0 0 0 0 0 0 0 0 0 0 0 0 0 0 0 0 0 0 0 0 0 0 0 0 0 0 0 0 0 0 0 0 0 0 0 0 0 0 0 0
Wind_Speed_500mb
19 17 10 8 12 12 24 15 0 12 12 1 2 5 18 29 11 6 21 19 18 18 18 14 18 17 17 12 10 1 7 11 13 15 14 16 17 19 18 17 18 18 19 21 23 22 22 24 25
18 20 10 9 13 19 19 13 18 11 14 13 12 5 7 12 18 29 22 21 19 18 12 13 14 14 14 14 11 10 3 9 14 17 19 20 21 23 25 25 24 23 20 25 27 27 27 28 28
25 27 13 9 17 19 5 10 16 12 15 11 9 10 8 11 24 21 25 23 18 14 9 9 11 14 15 13 13 13 12 9 8 14 20 22 24 27 27 28 29 28 24 25 27 29 29 32 31
11 10 8 13 18 5 10 8 19 17 12 6 4 14 13 16 18 22 29 22 16 10 4 3 8 12 16 20 22 20 18 17 17 16 16 20 25 28 30 32 33 34 30 29 31 30 32 34 36
9 10 13 18 14 4 6 10 12 13 12 12 8 11 12 13 24 29 26 18 12 7 2 6 10 15 19 21 23 26 27 28 27 27 26 25 25 28 34 36 36 35 37 35 34 35 35 37 39
12 10 13 19 16 7 7 11 11 12 10 9 9 16 11 22 28 26 22 17 12 5 7 13 15 18 19 20 22 25 29 31 31 33 34 35 34 33 32 35 38 41 43 41 40 41 42 43 42
16 11 19 13 6 9 10 12 14 16 14 13 4 14 12 27 27 25 21 16 11 9 11 13 16 16 16 14 16 19 24 31 36 37 37 39 41 42 42 39 40 44 47 49 48 47 48 49 48
6 6 11 12 14 10 12 14 5 12 14 5 6 7 11 32 31 27 22 17 14 13 13 14 15 15 15 18 21 25 26 28 33 41 45 45 46 46 47 49 50 47 49 56 55 55 54 55 54
3 9 14 17 13 5 12 16 9 4 7 11 9 3 9 34 33 27 21 16 15 16 16 14 13 15 18 23 26 30 34 38 42 43 43 45 49 52 51 50 52 55 56 57 60 63 63 61 60
8 9 12 12 8 1 13 13 10 10 18 19 16 11 16 30 31 27 23 18 16 12 11 14 18 20 22 24 28 32 38 43 49 52 53 52 52 52 56 57 54 55 60 63 63 63 67 68 67
1 6 6 6 6 3 5 7 8 12 16 24 25 27 24 28 28 26 23 20 19 18 20 22 24 26 28 30 32 36 43 50 56 60 60 57 55 55 56 57 59 59 57 60 65 69 68 70 71
6 1 4 3 3 2 3 5 11 25 23 7 13 18 29 29 27 25 23 22 22 21 22 25 28 29 30 30 33 39 47 54 61 64 61 60 57 56 56 58 59 59 60 59 60 66 70 72 72
3 5 3 3 1 4 9 17 19 27 27 15 16 18 28 27 26 23 22 23 25 24 26 27 32 32 33 33 37 44 51 58 66 66 63 61 60 59 58 58 59 59 59 61 61 60 64 73 76
4 5 3 1 2 5 10 14 5 6 14 38 30 25 27 28 26 22 24 26 28 29 36 37 36 34 33 37 42 48 54 60 65 64 63 62 61 59 57 57 58 58 57 58 60 61 60 66 74
6 3 5 7 1 4 10 20 26 30 15 18 40 37 32 33 30 26 27 30 30 29 35 35 33 34 35 40 46 52 58 64 66 65 63 61 59 59 59 59 58 56 56 58 61 63 64 68 71
4 5 6 9 3 3 3 15 9 6 15 23 27 37 40 41 35 27 26 28 31 31 33 34 34 36 39 43 50 57 62 66 63 63 64 63 60 60 61 59 58 55 54 54 55 55 60 62 63
2 4 7 7 3 3 12 18 8 9 14 24 26 33 39 42 41 33 31 30 33 32 33 35 37 37 42 49 56 61 65 65 63 63 64 63 63 61 61 59 55 54 53 52 51 50 50 56 60
3 8 5 12 6 7 20 35 46 44 42 49 44 42 45 47 46 40 35 31 32 35 37 37 36 40 47 54 58 64 66 62 61 64 64 66 67 63 61 60 56 51 54 51 49 48 50 52 52
6 9 18 18 7 11 25 29 43 43 41 45 43 38 40 40 32 24 28 30 31 34 36 37 39 44 50 55 61 67 66 64 64 63 63 64 66 64 59 54 49 47 61 54 43 42 44 47 46
6 7 11 16 4 9 26 39 48 37 16 16 10 11 13 15 15 20 24 26 29 30 34 39 44 47 51 57 63 67 66 65 64 64 61 59 62 62 59 54 53 47 47 49 49 46 45 48 40
8 8 11 12 19 16 23 23 10 7 10 10 11 8 9 13 15 17 20 22 24 30 36 42 47 51 55 59 65 64 61 60 50 48 52 63 63 62 60 61 60 59 56 56 53 49 50 49 44
7 7 5 10 13 8 10 12 22 10 12 14 18 15 14 13 11 10 14 21 28 35 39 49 53 56 58 61 64 60 62 64 55 61 63 65 64 59 55 55 54 49 50 52 52 49 51 55 56
5 5 6 4 6 10 7 7 7 7 11 15 20 16 13 9 5 4 15 25 33 42 51 55 57 58 59 63 60 60 60 60 62 60 60 56 57 51 48 49 47 48 50 54 54 52 55 54 55
4 7 8 6 4 7 5 5 10 3 2 14 18 16 15 13 9 10 18 28 35 41 46 49 51 54 57 58 57 58 57 61 65 64 59 56 47 43 43 42 43 44 44 46 47 45 44 49 56
1 5 5 6 6 5 1 9 18 9 1 9 15 15 15 9 4 21 30 35 38 37 35 39 45 51 52 54 55 56 62 63 62 59 59 53 48 44 41 42 43 44 46 48 49 49 52 53 55
5 1 6 9 6 11 3 12 3 3 2 18 3 8 12 15 18 25 49 50 44 40 38 40 45 46 50 54 55 59 60 60 57 57 51 51 49 46 43 43 43 44 45 46 48 52 54 55 56
7 6 5 2 3 5 8 9 21 6 5 15 15 10 13 20 26 37 62 46 41 38 35 37 39 45 49 50 56 58 54 51 52 48 48 46 45 45 43 43 43 45 48 48 46 55 60 61 66
4 3 3 5 7 10 10 9 15 2 1 1 14 11 16 35 40 54 47 45 41 35 32 34 39 45 44 50 53 52 51 46 47 48 45 43 43 42 42 41 42 46 47 49 48 55 56 62 69
7 6 6 5 6 8 12 2 7 9 10 11 10 13 38 51 48 43 45 43 37 31 30 33 39 39 40 47 52 51 45 43 42 44 41 40 42 41 40 41 42 46 50 52 51 51 60 64 68
5 5 13 9 10 8 9 14 10 8 2 10 22 43 55 55 46 40 41 38 29 28 29 34 36 34 39 49 50 45 44 39 39 39 37 38 41 39 39 40 41 46 45 45 47 54 53 58 64
Wind_Direction_500mb
204 187 166 200 221 234 242 209 64 178 178 56 225 279 67 43 11 86 132 122 105 85 66 61 62 59 63 66 57 2 243 236 250 267 270 267 261 255 246 242 246 249 259 258 254 249 249 244 239
170 169 166 232 250 211 228 171 200 161 93 130 110 99 66 78 66 125 125 125 116 98 84 60 42 45 44 43 35 34 8 265 267 263 259 259 256 256 262 263 257 245 249 263 257 252 250 243 245
149 149 200 223 234 250 261 164 137 132 161 161 124 51 78 94 123 137 143 134 122 111 98 58 29 10 3 0 357 351 347 338 307 289 283 273 267 262 260 258 258 256 245 248 254 257 253 249 248
146 184 239 243 219 184 11 137 132 147 143 173 130 110 95 105 135 150 146 136 140 136 127 30 351 340 334 332 330 327 322 318 313 306 293 286 276 270 266 261 256 251 251 253 248 243 248 252 251
167 222 233 235 239 95 121 111 186 180 145 163 186 129 110 134 138 143 150 138 137 162 270 321 325 322 323 323 321 318 314 313 312 306 298 292 287 282 273 264 260 257 252 248 250 245 243 248 253
211 270 236 231 202 132 139 154 186 201 166 149 198 144 129 160 149 152 148 144 136 218 290 306 309 311 313 316 318 320 318 314 309 307 302 295 289 281 276 276 266 257 255 254 250 246 244 244 251
256 234 255 287 263 198 177 165 203 197 183 166 122 183 145 169 167 160 156 167 184 236 272 291 305 310 311 312 316 316 318 319 319 316 311 306 297 288 283 274 271 262 258 255 253 252 251 247 247
259 263 245 234 225 227 135 175 193 213 192 128 183 195 180 186 175 177 185 199 220 253 275 293 297 299 302 308 316 320 320 321 320 320 316 311 306 299 289 282 274 269 264 258 256 252 252 253 250
220 242 245 244 237 104 147 193 180 221 236 196 196 198 146 172 179 185 192 212 235 255 266 278 287 297 302 306 310 315 320 324 327 324 316 311 305 301 295 289 280 273 267 262 258 254 252 250 251
235 246 260 28 25 89 163 224 184 225 209 223 216 195 167 175 181 188 201 217 221 216 249 281 297 303 308 309 313 320 327 330 330 326 323 316 309 300 294 290 285 278 271 266 261 257 253 251 249
213 278 42 67 56 30 163 221 217 237 235 234 229 215 194 186 195 205 216 227 230 222 248 269 285 299 309 315 318 324 327 327 327 326 323 318 311 305 297 289 284 281 275 270 265 261 256 251 251
214 71 7 104 60 53 220 297 250 237 243 310 229 218 200 203 208 217 224 232 228 230 244 274 287 293 298 304 310 318 323 327 329 329 324 319 313 305 299 293 287 280 276 272 266 263 261 256 249
231 138 90 104 123 281 278 258 269 262 248 237 207 198 204 212 215 224 229 229 225 229 250 268 280 282 291 300 308 318 326 330 332 331 327 321 314 307 298 291 286 282 278 272 268 263 260 259 254
102 145 141 236 243 266 286 275 312 222 226 228 225 223 217 220 219 226 238 241 236 239 250 260 271 279 294 304 313 322 327 327 327 327 326 321 314 308 301 291 285 281 277 273 268 264 259 255 256
127 200 200 200 224 302 323 263 235 254 235 232 229 231 228 221 218 241 255 247 234 234 246 260 273 282 292 302 313 319 320 320 320 321 323 320 313 307 301 296 288 280 277 273 270 267 264 262 257
233 247 254 126 203 125 306 276 180 228 230 235 231 227 226 221 230 252 258 242 226 225 247 261 269 280 294 306 312 313 314 316 315 316 318 320 314 306 300 294 288 284 276 273 271 268 265 261 259
37 260 254 173 135 291 224 287 75 230 234 247 236 232 229 233 237 256 256 237 221 231 243 260 269 286 299 306 309 311 313 313 313 314 315 315 312 305 298 292 285 280 277 273 268 266 264 262 261
310 289 247 276 86 267 261 266 279 269 244 258 260 253 245 244 250 262 246 221 221 235 246 258 274 287 297 304 309 312 311 310 309 309 309 310 310 304 296 289 282 279 274 270 271 270 265 262 259
329 302 290 291 54 311 274 277 279 280 267 260 260 258 256 254 255 231 208 213 224 238 251 263 277 289 298 305 311 311 308 305 303 304 304 305 307 301 294 288 279 269 270 270 261 266 268 270 267
315 315 293 290 49 297 295 289 276 283 270 246 227 208 199 197 197 195 201 217 233 245 261 274 282 290 299 305 309 306 304 302 302 304 305 305 305 298 290 285 280 275 274 273 271 258 258 264 261
281 267 298 292 322 260 299 276 223 167 185 184 193 177 170 178 184 198 213 231 249 262 271 278 284 292 296 302 306 304 301 303 298 296 290 296 296 290 284 280 273 265 262 266 266 264 253 256 260
284 17 315 320 338 297 19 290 281 184 212 199 177 178 148 150 165 198 233 256 265 273 276 280 286 289 294 300 302 301 300 299 298 296 297 296 295 288 279 275 277 274 269 269 267 268 265 252 255
342 338 313 289 278 315 163 248 261 156 169 168 166 154 139 133 138 287 299 292 285 278 279 281 282 285 292 299 300 300 298 298 299 296 295 293 290 286 282 278 274 268 266 266 268 265 258 253 251
80 306 264 250 241 243 94 279 268 277 211 136 145 146 143 124 90 16 325 308 297 290 286 283 282 286 293 297 300 299 298 300 299 299 294 291 290 285 279 278 276 276 272 268 267 269 266 261 256
271 285 275 228 215 287 343 265 262 297 34 157 172 169 150 137 56 357 337 320 306 296 285 280 284 291 295 300 301 301 302 301 298 296 295 296 296 295 291 284 279 275 272 271 264 258 255 258 255
197 343 299 285 293 339 188 242 234 135 285 242 206 185 218 251 277 312 328 317 308 301 294 287 289 295 300 303 304 304 304 301 298 301 299 297 300 299 296 291 283 278 279 275 272 260 259 262 265
137 210 42 285 123 270 239 252 270 67 343 233 202 261 257 278 275 292 311 308 303 302 293 290 295 299 302 306 309 309 306 302 298 298 300 302 302 302 301 298 296 292 287 280 272 265 260 260 269
246 55 187 188 273 265 230 252 250 349 56 271 175 198 296 302 296 306 311 309 307 301 296 296 299 301 310 315 314 310 308 304 304 306 308 304 303 304 305 307 305 300 290 282 280 272 267 267 269
149 205 219 308 249 267 296 225 186 209 189 192 228 270 310 316 315 315 314 310 303 294 293 298 302 308 313 318 317 316 312 309 310 306 307 306 306 307 305 304 303 298 294 290 283 276 275 270 279
237 253 208 234 187 241 289 268 203 195 189 254 271 288 315 317 316 317 312 309 297 290 293 300 303 307 315 324 322 321 314 313 312 310 306 309 307 303 302 302 296 294 293 290 286 282 275 268 274
Wind_Speed_850mb
19 17 10 8 12 12 24 15 0 12 12 1 2 5 18 29 11 6 21 19 18 18 18 14 18 17 17 12 10 1 7 11 13 15 14 16 17 19 18 17 18 18 19 21 23 22 22 24 25
18 20 10 9 13 19 19 13 18 11 14 13 12 5 7 12 18 29 22 21 19 18 12 13 14 14 14 14 11 10 3 9 14 17 19 20 21 23 25 25 24 23 20 25 27 27 27 28 28
25 27 13 9 17 19 5 10 16 12 15 11 9 10 8 11 24 21 25 23 18 14 9 9 11 14 15 13 13 13 12 9 8 14 20 22 24 27 27 28 29 28 24 25 27 29 29 32 31
11 10 8 13 18 5 10 8 19 17 12 6 4 14 13 16 18 22 29 22 16 10 4 3 8 12 16 20 22 20 18 17 17 16 16 20 25 28 30 32 33 34 30 29 31 30 32 34 36
9 10 13 18 14 4 6 10 12 13 12 12 8 11 12 13 24 29 26 18 12 7 2 6 10 15 19 21 23 26 27 28 27 27 26 25 25 28 34 36 36 35 37 35 34 35 35 37 39
12 10 13 19 16 7 7 11 11 12 10 9 9 16 11 22 28 26 22 17 12 5 7 13 15 18 19 20 22 25 29 31 31 33 34 35 34 33 32 35 38 41 43 41 40 41 42 43 42
16 11 19 13 6 9 10 12 14 16 14 13 4 14 12 27 27 25 21 16 11 9 11 13 16 16 16 14 16 19 24 31 36 37 37 39 41 42 42 39 40 44 47 49 48 47 48 49 48
6 6 11 12 14 10 12 14 5 12 14 5 6 7 11 32 31 27 22 17 14 13 13 14 15 15 15 18 21 25 26 28 33 41 45 45 46 46 47 49 50 47 49 56 55 55 54 55 54
3 9 14 17 13 5 12 16 9 4 7 11 9 3 9 34 33 27 21 16 15 16 16 14 13 15 18 23 26 30 34 38 42 43 43 45 49 52 51 50 52 55 56 57 60 63 63 61 60
8 9 12 12 8 1 13 13 10 10 18 19 16 11 16 30 31 27 23 18 16 12 11 14 18 20 22 24 28 32 38 43 49 52 53 52 52 52 56 57 54 55 60 63 63 63 67 68 67
1 6 6 6 6 3 5 7 8 12 16 24 25 27 24 28 28 26 23 20 19 18 20 22 24 26 28 30 32 36 43 50 56 60 60 57 55 55 56 57 59 59 57 60 65 69 68 70 71
6 1 4 3 3 2 3 5 11 25 23 7 13 18 29 29 27 25 23 22 22 21 22 25 28 29 30 30 33 39 47 54 61 64 61 60 57 56 56 58 59 59 60 59 60 66 70 72 72
3 5 3 3 1 4 9 17 19 27 27 15 16 18 28 27 26 23 22 23 25 24 26 27 32 32 33 33 37 44 51 58 66 66 63 61 60 59 58 58 59 59 59 61 61 60 64 73 76
4 5 3 1 2 5 10 14 5 6 14 38 30 25 27 28 26 22 24 26 28 29 36 37 36 34 33 37 42 48 54 60 65 64 63 62 61 59 57 57 58 58 57 58 60 61 60 66 74
6 3 5 7 1 4 10 20 26 30 15 18 40 37 32 33 30 26 27 30 30 29 35 35 33 34 35 40 46 52 58 64 66 65 63 61 59 59 59 59 58 56 56 58 61 63 64 68 71
4 5 6 9 3 3 3 15 9 6 15 23 27 37 40 41 35 27 26 28 31 31 33 34 34 36 39 43 50 57 62 66 63 63 64 63 60 60 61 59 58 55 54 54 55 55 60 62 63
2 4 7 7 3 3 12 18 8 9 14 24 26 33 39 42 41 33 31 30 33 32 33 35 37 37 42 49 56 61 65 65 63 63 64 63 63 61 61 59 55 54 53 52 51 50 50 56 60
3 8 5 12 6 7 20 35 46 44 42 49 44 42 45 47 46 40 35 31 32 35 37 37 36 40 47 54 58 64 66 62 61 64 64 66 67 63 61 60 56 51 54 51 49 48 50 52 52
6 9 18 18 7 11 25 29 43 43 41 45 43 38 40 40 32 24 28 30 31 34 36 37 39 44 50 55 61 67 66 64 64 63 63 64 66 64 59 54 49 47 61 54 43 42 44 47 46
6 7 11 16 4 9 26 39 48 37 16 16 10 11 13 15 15 20 24 26 29 30 34 39 44 47 51 57 63 67 66 65 64 64 61 59 62 62 59 54 53 47 47 49 49 46 45 48 40
8 8 11 12 19 16 23 23 10 7 10 10 11 8 9 13 15 17 20 22 24 30 36 42 47 51 55 59 65 64 61 60 50 48 52 63 63 62 60 61 60 59 56 56 53 49 50 49 44
7 7 5 10 13 8 10 12 22 10 12 14 18 15 14 13 11 10 14 21 28 35 39 49 53 56 58 61 64 60 62 64 55 61 63 65 64 59 55 55 54 49 50 52 52 49 51 55 56
5 5 6 4 6 10 7 7 7 7 11 15 20 16 13 9 5 4 15 25 33 42 51 55 57 58 59 63 60 60 60 60 62 60 60 56 57 51 48 49 47 48 50 54 54 52 55 54 55
4 7 8 6 4 7 5 5 10 3 2 14 18 16 15 13 9 10 18 28 35 41 46 49 51 54 57 58 57 58 57 61 65 64 59 56 47 43 43 42 43 44 44 46 47 45 44 49 56
1 5 5 6 6 5 1 9 18 9 1 9 15 15 15 9 4 21 30 35 38 37 35 39 45 51 52 54 55 56 62 63 62 59 59 53 48 44 41 42 43 44 46 48 49 49 52 53 55
5 1 6 9 6 11 3 12 3 3 2 18 3 8 12 15 18 25 49 50 44 40 38 40 45 46 50 54 55 59 60 60 57 57 51 51 49 46 43 43 43 44 45 46 48 52 54 55 56
7 6 5 2 3 5 8 9 21 6 5 15 15 10 13 20 26 37 62 46 41 38 35 37 39 45 49 50 56 58 54 51 52 48 48 46 45 45 43 43 43 45 48 48 46 55 60 61 66
4 3 3 5 7 10 10 9 15 2 1 1 14 11 16 35 40 54 47 45 41 35 32 34 39 45 44 50 53 52 51 46 47 48 45 43 43 42 42 41 42 46 47 49 48 55 56 62 69
7 6 6 5 6 8 12 2 7 9 10 11 10 13 38 51 48 43 45 43 37 31 30 33 39 39 40 47 52 51 45 43 42 44 41 40 42 41 40 41 42 46 50 52 51 51 60 64 68
5 5 13 9 10 8 9 14 10 8 2 10 22 43 55 55 46 40 41 38 29 28 29 34 36 34 39 49 50 45 44 39 39 39 37 38 41 39 39 40 41 46 45 45 47 54 53 58 64
Wind_Direction_850mb
204 187 166 200 221 234 242 209 64 178 178 56 225 279 67 43 11 86 132 122 105 85 66 61 62 59 63 66 57 2 243 236 250 267 270 267 261 255 246 242 246 249 259 258 254 249 249 244 239
170 169 166 232 250 211 228 171 200 161 93 130 110 99 66 78 66 125 125 125 116 98 84 60 42 45 44 43 35 34 8 265 267 263 259 259 256 256 262 263 257 245 249 263 257 252 250 243 245
149 149 200 223 234 250 261 164 137 132 161 161 124 51 78 94 123 137 143 134 122 111 98 58 29 10 3 0 357 351 347 338 307 289 283 273 267 262 260 258 258 256 245 248 254 257 253 249 248
146 184 239 243 219 184 11 137 132 147 143 173 130 110 95 105 135 150 146 136 140 136 127 30 351 340 334 332 330 327 322 318 313 306 293 286 276 270 266 261 256 251 251 253 248 243 248 252 251
167 222 233 235 239 95 121 111 186 180 145 163 186 129 110 134 138 143 150 138 137 162 270 321 325 322 323 323 321 318 314 313 312 306 298 292 287 282 273 264 260 257 252 248 250 245 243 248 253
211 270 236 231 202 132 139 154 186 201 166 149 198 144 129 160 149 152 148 144 136 218 290 306 309 311 313 316 318 320 318 314 309 307 302 295 289 281 276 276 266 257 255 254 250 246 244 244 251
256 234 255 287 263 198 177 165 203 197 183 166 122 183 145 169 167 160 156 167 184 236 272 291 305 310 311 312 316 316 318 319 319 316 311 306 297 288 283 274 271 262 258 255 253 252 251 247 247
259 263 245 234 225 227 135 175 193 213 192 128 183 195 180 186 175 177 185 199 220 253 275 293 297 299 302 308 316 320 320 321 320 320 316 311 306 299 289 282 274 269 264 258 256 252 252 253 250
220 242 245 244 237 104 147 193 180 221 236 196 196 198 146 172 179 185 192 212 235 255 266 278 287 297 302 306 310 315 320 324 327 324 316 311 305 301 295 289 280 273 267 262 258 254 252 250 251
235 246 260 28 25 89 163 224 184 225 209 223 216 195 167 175 181 188 201 217 221 216 249 281 297 303 308 309 313 320 327 330 330 326 323 316 309 300 294 290 285 278 271 266 261 257 253 251 249
213 278 42 67 56 30 163 221 217 237 235 234 229 215 194 186 195 205 216 227 230 222 248 269 285 299 309 315 318 324 327 327 327 326 323 318 311 305 297 289 284 281 275 270 265 261 256 251 251
214 71 7 104 60 53 220 297 250 237 243 310 229 218 200 203 208 217 224 232 228 230 244 274 287 293 298 304 310 318 323 327 329 329 324 319 313 305 299 293 287 280 276 272 266 263 261 256 249
231 138 90 104 123 281 278 258 269 262 248 237 207 198 204 212 215 224 229 229 225 229 250 268 280 282 291 300 308 318 326 330 332 331 327 321 314 307 298 291 286 282 278 272 268 263 260 259 254
102 145 141 236 243 266 286 275 312 222 226 228 225 223 217 220 219 226 238 241 236 239 250 260 271 279 294 304 313 322 327 327 327 327 326 321 314 308 301 291 285 281 277 273 268 264 259 255 256
127 200 200 200 224 302 323 263 235 254 235 232 229 231 228 221 218 241 255 247 234 234 246 260 273 282 292 302 313 319 320 320 320 321 323 320 313 307 301 296 288 280 277 273 270 267 264 262 257
233 247 254 126 203 125 306 276 180 228 230 235 231 227 226 221 230 252 258 242 226 225 247 261 269 280 294 306 312 313 314 316 315 316 318 320 314 306 300 294 288 284 276 273 271 268 265 261 259
37 260 254 173 135 291 224 287 75 230 234 247 236 232 229 233 237 256 256 237 221 231 243 260 269 286 299 306 309 311 313 313 313 314 315 315 312 305 298 292 285 280 277 273 268 266 264 262 261
310 289 247 276 86 267 261 266 279 269 244 258 260 253 245 244 250 262 246 221 221 235 246 258 274 287 297 304 309 312 311 310 309 309 309 310 310 304 296 289 282 279 274 270 271 270 265 262 259
329 302 290 291 54 311 274 277 279 280 267 260 260 258 256 254 255 231 208 213 224 238 251 263 277 289 298 305 311 311 308 305 303 304 304 305 307 301 294 288 279 269 270 270 261 266 268 270 267
315 315 293 290 49 297 295 289 276 283 270 246 227 208 199 197 197 195 201 217 233 245 261 274 282 290 299 305 309 306 304 302 302 304 305 305 305 298 290 285 280 275 274 273 271 258 258 264 261
281 267 298 292 322 260 299 276 223 167 185 184 193 177 170 178 184 198 213 231 249 262 271 278 284 292 296 302 306 304 301 303 298 296 290 296 296 290 284 280 273 265 262 266 266 264 253 256 260
284 17 315 320 338 297 19 290 281 184 212 199 177 178 148 150 165 198 233 256 265 273 276 280 286 289 294 300 302 301 300 299 298 296 297 296 295 288 279 275 277 274 269 269 267 268 265 252 255
342 338 313 289 278 315 163 248 261 156 169 168 166 154 139 133 138 287 299 292 285 278 279 281 282 285 292 299 300 300 298 298 299 296 295 293 290 286 282 278 274 268 266 266 268 265 258 253 251
80 306 264 250 241 243 94 279 268 277 211 136 145 146 143 124 90 16 325 308 297 290 286 283 282 286 293 297 300 299 298 300 299 299 294 291 290 285 279 278 276 276 272 268 267 269 266 261 256
271 285 275 228 215 287 343 265 262 297 34 157 172 169 150 137 56 357 337 320 306 296 285 280 284 291 295 300 301 301 302 301 298 296 295 296 296 295 291 284 279 275 272 271 264 258 255 258 255
197 343 299 285 293 339 188 242 234 135 285 242 206 185 218 251 277 312 328 317 308 301 294 287 289 295 300 303 304 304 304 301 298 301 299 297 300 299 296 291 283 278 279 275 272 260 259 262 265
137 210 42 285 123 270 239 252 270 67 343 233 202 261 257 278 275 292 311 308 303 302 293 290 295 299 302 306 309 309 306 302 298 298 300 302 302 302 301 298 296 292 287 280 272 265 260 260 269
246 55 187 188 273 265 230 252 250 349 56 271 175 198 296 302 296 306 311 309 307 301 296 296 299 301 310 315 314 310 308 304 304 306 308 304 303 304 305 307 305 300 290 282 280 272 267 267 269
149 205 219 308 249 267 296 225 186 209 189 192 228 270 310 316 315 315 314 310 303 294 293 298 302 308 313 318 317 316 312 309 310 306 307 306 306 307 305 304 303 298 294 290 283 276 275 270 279
237 253 208 234 187 241 289 268 203 195 189 254 271 288 315 317 316 317 312 309 297 290 293 300 303 307 315 324 322 321 314 313 312 310 306 309 307 303 302 302 296 294 293 290 286 282 275 268 274